EW9475 Weather Reports


Display with metric or nautical units.
time (UTC)temp
F
wind
direction
speed
MPH
gust
MPH
rain 1hr
in
rain 24hr
in
rain mn
in
humidity
%
barometer
mb
20190524141717 70 337 1.0 2.0 0.00 0.00 0.00 81 1008.8
20190524140717 68 337 1.0 2.0 0.00 0.00 0.00 83 1008.8
20190524135717 67 337 1.0 2.0 0.00 0.00 0.00 84 1008.9
20190524134717 65 0.0 0.0 0.00 0.00 0.00 88 1008.7
20190524133716 63 0.0 0.0 0.00 0.00 0.00 89 1008.6
20190524132716 62 337 1.0 1.0 0.00 0.00 0.00 90 1008.6
20190524131716 61 0.0 0.0 0.00 0.00 0.00 91 1008.6
20190524130717 60 337 2.0 2.0 0.00 0.00 0.00 91 1008.5
20190524125717 59 0.0 0.0 0.00 0.00 0.00 92 1008.2
20190524124716 58 0.0 0.0 0.00 0.00 0.00 92 1008.2
20190524123716 58 0.0 0.0 0.00 0.00 0.00 92 1008.3
20190524122717 58 0.0 0.0 0.00 0.00 0.00 90 1008.2
20190524121717 58 0.0 0.0 0.00 0.00 0.00 89 1008.2
20190524120716 59 0.0 0.0 0.00 0.00 0.00 88 1008.0
20190524115716 60 0 2.0 5.0 0.00 0.00 0.00 88 1008.0
20190524114716 61 0.0 1.0 0.00 0.00 0.00 88 1007.9
20190524113716 61 0.0 1.0 0.00 0.00 0.00 88 1007.9
20190524112716 61 0.0 0.0 0.00 0.00 0.00 88 1007.8
20190524111716 61 292 1.0 2.0 0.00 0.00 0.00 89 1007.6
20190524110716 61 0.0 0.0 0.00 0.00 0.00 88 1007.6
20190524105717 61 0.0 0.0 0.00 0.00 0.00 87 1007.6
20190524104716 61 0.0 0.0 0.00 0.00 0.00 86 1007.6
20190524103716 62 0.0 0.0 0.00 0.00 0.00 84 1007.7
20190524102716 63 315 1.0 2.0 0.00 0.00 0.00 83 1007.8
20190524101716 65 292 2.0 3.0 0.00 0.00 0.00 82 1007.7
20190524100716 65 270 2.0 3.0 0.00 0.00 0.00 83 1007.7
20190524095716 65 270 2.0 3.0 0.00 0.00 0.00 83 1007.8
20190524094716 65 270 2.0 3.0 0.00 0.00 0.00 83 1007.8
20190524093716 65 270 2.0 4.0 0.00 0.00 0.00 82 1007.8
20190524092716 65 270 3.0 4.0 0.00 0.00 0.00 83 1007.7
20190524091716 65 270 3.0 4.0 0.00 0.00 0.00 83 1007.8
20190524090716 65 270 3.0 3.0 0.00 0.00 0.00 84 1007.8
20190524085716 64 270 3.0 4.0 0.00 0.00 0.00 85 1008.0
20190524084716 65 270 1.0 2.0 0.00 0.00 0.00 83 1008.0
20190524083716 65 270 2.0 3.0 0.00 0.00 0.00 83 1007.9
20190524082716 65 270 2.0 2.0 0.00 0.00 0.00 83 1007.9
20190524081717 65 270 1.0 2.0 0.00 0.00 0.00 83 1007.9
20190524080716 66 270 1.0 2.0 0.00 0.00 0.00 83 1008.0
20190524075716 66 270 2.0 3.0 0.00 0.00 0.00 82 1008.1
20190524074716 66 270 3.0 6.0 0.00 0.00 0.00 83 1008.0
20190524073716 66 270 3.0 4.0 0.00 0.00 0.00 84 1008.1
20190524072716 65 270 2.0 3.0 0.00 0.00 0.00 84 1008.2
20190524071716 65 270 3.0 4.0 0.00 0.00 0.00 85 1008.4
20190524070716 64 270 1.0 2.0 0.00 0.00 0.00 85 1008.3
20190524065716 64 270 2.0 2.0 0.00 0.00 0.00 84 1008.3
20190524064716 65 270 1.0 2.0 0.00 0.00 0.00 84 1008.3
20190524063716 65 270 2.0 3.0 0.00 0.00 0.00 82 1008.3
20190524062716 66 270 2.0 3.0 0.00 0.00 0.00 81 1008.3
20190524061716 67 270 1.0 2.0 0.00 0.00 0.00 79 1008.5
20190524060716 68 270 1.0 2.0 0.00 0.00 0.00 78 1008.7
20190524055716 69 292 2.0 3.0 0.00 0.00 0.00 77 1008.6
20190524054716 69 315 3.0 4.0 0.00 0.00 0.00 76 1008.7
20190524053716 69 292 3.0 4.0 0.00 0.00 0.00 76 1008.7
20190524052716 69 292 4.0 6.0 0.00 0.00 0.00 76 1008.8
20190524051758 70 315 5.0 8.0 0.00 0.00 0.00 75 1008.8
20190524050716 70 315 7.0 11.0 0.00 0.00 0.00 76 1008.8
20190524045716 70 315 5.0 8.0 0.00 0.00 0.00 76 1008.7
20190524044716 69 315 5.0 8.0 0.00 0.00 0.00 76 1008.7
20190524043716 69 315 5.0 10.0 0.00 0.00 0.00 77 1008.6
20190524042721 69 315 4.0 6.0 0.00 0.00 0.00 77 1008.6
20190524041716 70 292 6.0 8.0 0.00 0.00 0.00 77 1008.5
20190524040716 70 315 4.0 7.0 0.00 0.00 0.00 76 1008.4
20190524035716 70 292 9.0 11.0 0.00 0.00 0.00 76 1008.3
20190524034716 70 292 7.0 9.0 0.00 0.00 0.00 76 1008.2
20190524033716 71 292 9.0 13.0 0.00 0.00 0.00 75 1008.2
20190524032716 71 315 8.0 10.0 0.00 0.00 0.00 75 1008.2
20190524031716 71 292 7.0 9.0 0.00 0.00 0.00 74 1008.2
20190524030716 71 292 8.0 11.0 0.00 0.00 0.00 73 1008.1
20190524025749 71 292 8.0 11.0 0.00 0.00 0.00 73 1008.0
20190524024715 71 292 7.0 10.0 0.00 0.00 0.00 74 1008.0
20190524023716 71 292 3.0 4.0 0.00 0.00 0.00 75 1008.0
20190524022716 71 292 4.0 8.0 0.00 0.00 0.00 75 1008.0
20190524021716 72 270 7.0 9.0 0.00 0.00 0.00 74 1008.0
20190524020716 72 270 5.0 9.0 0.00 0.00 0.00 72 1008.0
20190524015716 73 292 6.0 10.0 0.00 0.00 0.00 70 1007.9
20190524014715 73 270 8.0 12.0 0.00 0.00 0.00 70 1007.9
20190524013716 74 270 6.0 12.0 0.00 0.00 0.00 68 1007.8
20190524012716 75 270 8.0 17.0 0.00 0.00 0.00 66 1007.7
20190524011715 76 270 10.0 13.0 0.00 0.00 0.00 65 1007.7
20190524010716 76 270 9.0 14.0 0.00 0.00 0.00 65 1007.6
20190524005715 76 270 9.0 12.0 0.00 0.00 0.00 64 1007.6
20190524004715 77 270 11.0 13.0 0.00 0.00 0.00 63 1007.6
20190524003715 77 270 10.0 13.0 0.00 0.00 0.00 63 1007.6
20190524002715 78 270 7.0 11.0 0.00 0.00 0.00 62 1007.7
20190524001715 79 247 10.0 13.0 0.00 0.00 0.00 61 1007.7
20190524000716 79 247 10.0 15.0 0.00 0.00 0.00 61 1007.6
20190523235715 79 270 10.0 14.0 0.00 0.00 0.00 60 1007.6
20190523234715 80 270 11.0 15.0 0.00 0.00 0.00 59 1007.6
20190523233715 80 270 12.0 19.0 0.00 0.00 0.00 58 1007.6
20190523232715 80 247 7.0 12.0 0.00 0.00 0.00 57 1007.7
20190523231715 80 247 8.0 11.0 0.00 0.00 0.00 57 1007.7
20190523230716 81 270 9.0 13.0 0.00 0.00 0.00 56 1007.8
20190523225716 81 247 8.0 21.0 0.00 0.00 0.00 57 1007.7
20190523224715 81 247 10.0 13.0 0.00 0.00 0.00 56 1007.8
20190523223716 81 247 7.0 9.0 0.00 0.00 0.00 57 1008.0
20190523222715 81 270 9.0 11.0 0.00 0.00 0.00 57 1008.0
20190523221715 81 270 11.0 17.0 0.00 0.00 0.00 57 1008.1
20190523220723 82 247 11.0 15.0 0.00 0.00 0.00 57 1008.1
20190523215715 82 247 9.0 14.0 0.00 0.00 0.00 58 1008.2
20190523214715 81 270 9.0 15.0 0.00 0.00 0.00 58 1008.3
20190523213715 82 270 10.0 16.0 0.00 0.00 0.00 59 1008.3
20190523212715 82 292 9.0 12.0 0.00 0.00 0.00 58 1008.3
20190523211715 83 270 10.0 13.0 0.00 0.00 0.00 58 1008.4
20190523210715 82 247 9.0 11.0 0.00 0.00 0.00 57 1008.5
20190523205735 83 247 10.0 14.0 0.00 0.00 0.00 56 1008.6
20190523204715 83 247 8.0 12.0 0.00 0.00 0.00 55 1008.7
20190523190757 83 270 5.0 10.0 0.00 0.00 0.00 58 1009.7
20190523185717 83 315 9.0 13.0 0.00 0.00 0.00 56 1009.8
20190523184716 83 270 8.0 10.0 0.00 0.00 0.00 57 1010.0
20190523183717 83 270 6.0 9.0 0.00 0.00 0.00 58 1010.1
20190523182717 82 247 8.0 11.0 0.00 0.00 0.00 58 1010.2
20190523181717 83 247 7.0 10.0 0.00 0.00 0.00 57 1010.1
20190523180717 84 202 4.0 7.0 0.00 0.00 0.00 48 1010.2
20190523175717 84 180 2.0 3.0 0.00 0.00 0.00 51 1010.2
20190523174717 83 22 2.0 4.0 0.00 0.00 0.00 53 1010.2
20190523173717 83 90 1.0 3.0 0.00 0.00 0.00 55 1010.3
20190523172717 82 180 3.0 5.0 0.00 0.00 0.00 56 1010.4
20190523171718 82 292 4.0 6.0 0.00 0.00 0.00 56 1010.4
20190523170717 82 270 3.0 6.0 0.00 0.00 0.00 59 1010.5
20190523165718 81 247 1.0 2.0 0.00 0.00 0.00 61 1010.5
20190523164717 80 247 3.0 4.0 0.00 0.00 0.00 64 1010.4
20190523163716 79 315 4.0 5.0 0.00 0.00 0.00 66 1010.4
20190523162717 80 247 2.0 4.0 0.00 0.00 0.00 67 1010.4
20190523161717 78 180 2.0 3.0 0.00 0.00 0.00 69 1010.4
20190523160717 78 180 4.0 6.0 0.00 0.00 0.00 70 1010.4
20190523155716 78 247 2.0 3.0 0.00 0.00 0.00 71 1010.4
20190523154717 77 315 2.0 3.0 0.00 0.00 0.00 72 1010.4
20190523153717 77 315 4.0 4.0 0.00 0.00 0.00 74 1010.4
20190523152716 76 292 3.0 4.0 0.00 0.00 0.00 74 1010.4
20190523151716 75 270 4.0 6.0 0.00 0.00 0.00 77 1010.3
20190523150717 75 270 4.0 6.0 0.00 0.00 0.00 79 1010.4
20190523145717 74 270 4.0 6.0 0.00 0.00 0.00 80 1010.3
20190523144731 74 292 2.0 2.0 0.00 0.00 0.00 81 1010.3
20190523143716 73 0.0 1.0 0.00 0.00 0.00 81 1010.2
20190523142716 72 0.0 1.0 0.00 0.00 0.00 83 1010.0